Find Starlink 34312

NORAD ID: 64711 Int'l Des: 2025-142 Owner: SPXS Country: US Constellation: starlink operational
LEOCIRCULAR

リアルタイム位置

3D地球を読み込み中...

Starlink 34312について

説明を読み込み中...

次回通過

Passes for default location (London). Set your location on the main map for personalized predictions.

高度履歴

Loading altitude history...

軌道要素

1 64711U 25142R 26104.62287123 .00002683 00000-0 23254-3 0 9995
2 64711 70.0014 223.8291 0003304 270.1760 89.9020 14.98339528 45035
Epoch: Apr 14, 2026 • Age: 19 hours

現在のステータス

高度 579.6 km
速度 7.57 km/s
衛星直下点 -24.61°S, 65.51°E
打ち上げ日 Jun 28, 2025
運用期間 0.7 years
タイプ internet

技術仕様

分類 Payload
質量 575.00 kg
乾燥質量 530.00 kg
総質量 575.00 kg
長さ 0.30 m
直径 4.10 m
スパン 29.00 m
形状 Box + pan
製造者 SPXS
バスタイプ Starlink V2MO
フェーズステータス In Orbit
所有者/国 SPXS/US

Most Searched